This demonstration page uses our WeatherBlox Daily Observations layout. Learn more.

Left ArrowRight Arrow

47.50024, -111.30081

Hourly Observations for May 6, 2017

Temp ( °F °C ) Dew Point ( °F °C ) Humidity (%) Winds ( mph kmh ) Pressure ( in mb ) Visibility ( mi km ) Precip ( " mm )
12:53 am 00:53 Clear 55 12.8 47 8.3 74 74 SSW 3 6 29.67 1005 10 16 0.00 0.00
1:53 am 01:53 Clear 55 12.8 46 7.8 72 72 W 6 9 29.68 1005 10 16 0.00 0.00
2:53 am 02:53 Mostly Clear 52 11.1 45 7.2 77 77 W 6 9 29.70 1006 10 16 0.00 0.00
3:53 am 03:53 Clear 53 11.7 46 7.8 77 77 SSE 7 11 29.68 1005 10 16 0.00 0.00
4:53 am 04:53 Clear 51 10.6 45 7.2 80 80 ESE 7 11 29.67 1005 10 16 0.00 0.00
5:53 am 05:53 Clear 51 10.6 44 6.7 77 77 S 7 11 29.68 1005 10 16 0.00 0.00
6:53 am 06:53 Sunny 52 11.1 46 7.8 80 80 WSW 9 15 29.70 1006 10 16 0.00 0.00
7:53 am 07:53 Mostly Sunny 58 14.4 48 8.9 70 70 W 6 9 29.70 1006 10 16 0.00 0.00
8:53 am 08:53 Sunny 62 16.7 46 7.8 56 56 SW 3 6 29.67 1005 10 16 0.00 0.00
9:53 am 09:53 Sunny 66 18.9 44 6.7 45 45 NW 6 9 29.66 1004 10 16 0.00 0.00
10:53 am 10:53 Mostly Cloudy 67 19.4 46 7.8 47 47 SW 3 6 29.67 1005 10 16 0.00 0.03
11:53 am 11:53 Mostly Sunny 71 21.7 45 7.2 39 39 NW 6 9 29.66 1004 10 16 0.00 0.00
12:53 pm 12:53 Mostly Cloudy 70 21.1 46 7.8 42 42 NW 8 13 29.65 1004 10 16 0.00 0.00
1:53 pm 13:53 Sunny 73 22.8 46 7.8 38 38 S 3 6 29.64 1004 10 16 0.00 0.00
2:53 pm 14:53 Sunny 76 24.4 47 8.3 36 36 E 6 9 29.62 1003 10 16 0.00 0.00
3:53 pm 15:53 Sunny 77 25 45 7 32 32 Calm 29.47 998 10 16 0.00 0.00
4:53 pm 16:53 Sunny 76 24.4 46 7.8 35 35 N 6 9 29.58 1002 10 16 0.00 0.00
5:44 pm 17:44 Partly Cloudy with Nearby Thunderstorms 70 21 46 8 43 43 W 12 19 29.47 998 10 16 0.00 0.00
5:53 pm 17:53 Very Windy with Storms Likely 59 15 47 8.3 64 64 SW 39 63 29.71 1006 9 14 0.00 0.03
6:04 pm 18:04 Windy with Storms Likely 54 12 48 9 82 82 WSW 35 56 29.71 1006 5 8 0.00 0.00
6:20 pm 18:20 Windy with Storms Likely 54 12 48 9 82 82 W 22 35 29.68 1005 3 4 0.00 0.00
6:27 pm 18:27 Mostly Cloudy with Thunderstorms 55 12.8 49 9.4 80 80 W 17 28 29.65 1004 10 16 0.11 2.79
6:41 pm 18:41 Partly Cloudy with Nearby Thunderstorms 57 13.9 49 9.4 74 74 WNW 16 26 29.65 1004 10 16 0.11 2.79
6:51 pm 18:51 Sunny 57 14 48 9 72 72 NW 21 33 29.62 1003 10 16 0.11 2.79
6:53 pm 18:53 Sunny 57 13.9 49 9.4 74 74 NW 21 33 29.70 1006 10 16 0.11 2.79
7:53 pm 19:53 Sunny 60 15.6 47 8.3 62 62 NW 6 9 29.67 1005 10 16 0.00 0.00
8:53 pm 20:53 Clear 55 12.8 47 8.3 74 74 S 8 13 29.69 1005 10 16 0.00 0.00
9:53 pm 21:53 Partly Cloudy 52 11.1 48 8.9 86 86 WSW 8 13 29.70 1006 10 16 0.00 0.00
10:53 pm 22:53 Partly Cloudy 53 11.7 48 8.9 83 83 ESE 5 7 29.70 1006 10 16 0.00 0.00
11:53 pm 23:53 Mostly Clear 54 12.2 48 8.9 80 80 S 5 7 29.68 1005 10 16 0.00 0.00

Powered by AerisWeather